#�ϑ�����,���ϕ���,���ϕ���,�ő啗��,�ő啗����������,�ő�u�ԕ���,�ő�u�ԕ�����������
#(�N����),(m/s)   ,(16����),(m/s)   ,(16����)        ,(m/s)       ,(16����)            
2017/1/31 0:01,2.7,14,2.9,16,4.1,15
2017/1/31 0:02,2.8,14,2.8,16,7.4,16
2017/1/31 0:03,2.9,14,2.9,16,4.5,15
2017/1/31 0:04,3,14,3,16,4.5,12
2017/1/31 0:05,3.2,14,3.2,16,9.2,15
2017/1/31 0:06,3.4,14,3.4,16,9.1,15
2017/1/31 0:07,3.2,14,3.3,14,4.5,16
2017/1/31 0:08,3.2,14,3.3,14,5.4,15
2017/1/31 0:09,3.2,14,3.3,14,4.7,16
2017/1/31 0:10,3.2,14,3.2,14,2,14
2017/1/31 0:11,3.1,14,3.3,14,4.1,10
2017/1/31 0:12,2.9,14,3.1,14,3.5,5
2017/1/31 0:13,2.8,15,2.9,14,2.4,2
2017/1/31 0:14,2.6,15,2.8,14,1.8,3
2017/1/31 0:15,2.2,16,2.6,14,2.4,2
2017/1/31 0:16,1.8,16,2.1,14,3.3,16
2017/1/31 0:17,1.8,16,1.8,14,2.4,12
2017/1/31 0:18,1.6,1,1.8,14,5.5,15
2017/1/31 0:19,1.8,1,1.8,14,5,16
2017/1/31 0:20,1.9,1,1.9,14,3.7,16
2017/1/31 0:21,1.9,1,1.9,14,4.5,15
2017/1/31 0:22,2,16,2,14,3.7,16
2017/1/31 0:23,2.4,16,2.4,15,7.2,16
2017/1/31 0:24,2.7,16,2.7,16,6.9,15
2017/1/31 0:25,3,16,3,16,7.9,15
2017/1/31 0:26,3.1,16,3.1,16,6.7,16
2017/1/31 0:27,3.8,16,3.8,16,14.2,15
2017/1/31 0:28,4.1,16,4.1,16,12.7,16
2017/1/31 0:29,4.2,16,4.2,16,7,16
2017/1/31 0:30,4.4,16,4.4,16,8.9,15
2017/1/31 0:31,4.5,16,4.5,16,7.5,1
2017/1/31 0:32,4.7,16,4.7,16,7.4,1
2017/1/31 0:33,4.6,16,4.7,16,6.7,16
2017/1/31 0:34,4.6,16,4.7,16,7.9,1
2017/1/31 0:35,4.6,16,4.6,16,8.1,14
2017/1/31 0:36,4.7,16,4.7,16,10.9,16
2017/1/31 0:37,4.4,16,4.8,16,6.7,1
2017/1/31 0:38,4.3,16,4.3,16,9.5,1
2017/1/31 0:39,4.4,16,4.4,16,7.7,2
2017/1/31 0:40,4.5,16,4.5,16,8.5,16
2017/1/31 0:41,4.7,16,4.8,16,8.6,16
2017/1/31 0:42,4.7,16,4.7,16,5.6,1
2017/1/31 0:43,4.7,16,4.7,16,7.8,1
2017/1/31 0:44,4.6,16,4.7,16,6.4,16
2017/1/31 0:45,4.6,16,4.6,16,6.2,1
2017/1/31 0:46,4.8,16,4.8,16,9.1,1
2017/1/31 0:47,4.9,16,5,16,9.3,15
2017/1/31 0:48,4.9,16,4.9,16,5.8,15
2017/1/31 0:49,4.5,16,4.8,16,4.5,15
2017/1/31 0:50,4.5,16,4.6,16,7.9,1
2017/1/31 0:51,4.4,16,4.4,16,8.4,14
2017/1/31 0:52,4.4,16,4.4,16,7,16
2017/1/31 0:53,4.3,16,4.4,16,7.4,16
2017/1/31 0:54,4.2,16,4.3,16,4.4,16
2017/1/31 0:55,4.2,16,4.3,16,7.5,1
2017/1/31 0:56,3.7,16,4.2,16,3.1,1
2017/1/31 0:57,3.5,16,3.7,16,8.4,1
2017/1/31 0:58,3.7,16,3.7,16,10.5,16
2017/1/31 0:59,4.1,16,4.1,16,7.5,1
2017/1/31 1:00,4,16,4.1,16,7.4,1
2017/1/31 1:01,3.9,16,4,16,6.2,16
2017/1/31 1:02,3.7,16,3.9,16,3.2,16
2017/1/31 1:03,3.5,16,3.7,16,4.4,16
2017/1/31 1:04,3.7,16,3.7,16,8.7,16
2017/1/31 1:05,3.8,16,3.8,16,7.7,16
2017/1/31 1:06,4.2,16,4.2,16,7.8,16
2017/1/31 1:07,4.2,16,4.3,16,6.2,15
2017/1/31 1:08,3.8,16,4.1,16,3.3,1
2017/1/31 1:09,3.6,16,3.8,16,6.8,16
2017/1/31 1:10,3.4,16,3.6,16,5.4,14
2017/1/31 1:11,3.7,15,3.7,16,11.4,15
2017/1/31 1:12,4,16,4,16,10,16
2017/1/31 1:13,4.4,15,4.4,15,9.9,16
2017/1/31 1:14,4.4,15,4.4,15,7.6,16
2017/1/31 1:15,4.3,15,4.4,15,4.2,15
2017/1/31 1:16,4.1,16,4.2,15,7.4,1
2017/1/31 1:17,4.3,16,4.3,15,8.3,15
2017/1/31 1:18,4.5,16,4.5,16,8.4,15
2017/1/31 1:19,4.6,16,4.6,16,6.8,15
2017/1/31 1:20,4.7,16,4.7,16,6.5,15
2017/1/31 1:21,4.6,15,4.8,15,9.8,16
2017/1/31 1:22,4.5,15,4.6,15,6.8,1
2017/1/31 1:23,4.4,15,4.5,15,9,15
2017/1/31 1:24,4.4,15,4.5,15,11.1,16
2017/1/31 1:25,4.7,15,4.7,15,8.1,15
2017/1/31 1:26,4.6,15,4.7,15,6.1,16
2017/1/31 1:27,4.5,15,4.6,15,7.6,16
2017/1/31 1:28,4.6,15,4.6,15,9.3,16
2017/1/31 1:29,4.6,15,4.7,15,9,16
2017/1/31 1:30,4.7,15,4.8,15,9.5,15
2017/1/31 1:31,4.7,15,4.8,15,7.8,15
2017/1/31 1:32,4.9,16,4.9,16,10.8,16
2017/1/31 1:33,5,16,5.1,16,10,16
2017/1/31 1:34,5.3,16,5.3,16,10.6,15
2017/1/31 1:35,5.5,16,5.5,16,10.5,15
2017/1/31 1:36,5.7,16,5.7,16,10.3,16
2017/1/31 1:37,6,16,6,16,10.9,16
2017/1/31 1:38,5.9,16,6.1,16,9.8,16
2017/1/31 1:39,6.1,16,6.1,16,10.7,16
2017/1/31 1:40,6.2,16,6.2,16,10.5,16
2017/1/31 1:41,6.4,16,6.4,16,10.8,15
2017/1/31 1:42,6.4,16,6.5,16,11.5,16
2017/1/31 1:43,6.6,16,6.6,16,13.5,15
2017/1/31 1:44,6.5,16,6.6,16,11.8,16
2017/1/31 1:45,6.6,16,6.6,16,14.7,15
2017/1/31 1:46,6.5,16,6.7,16,11.4,14
2017/1/31 1:47,6.4,16,6.6,16,10.6,15
2017/1/31 1:48,6.3,16,6.4,16,9,16
2017/1/31 1:49,6.2,16,6.3,16,8.1,15
2017/1/31 1:50,5.9,16,6.2,16,7,15
2017/1/31 1:51,5.8,16,5.9,16,9.3,15
2017/1/31 1:52,5.7,15,5.7,16,9.9,15
2017/1/31 1:53,5.3,15,5.6,16,7.4,15
2017/1/31 1:54,5.2,15,5.3,16,7.8,16
2017/1/31 1:55,5.1,15,5.2,16,9.5,15
2017/1/31 1:56,5.3,15,5.3,16,11.1,16
2017/1/31 1:57,5.3,15,5.3,16,10.2,15
2017/1/31 1:58,5.3,15,5.3,16,8.6,15
2017/1/31 1:59,5.1,15,5.3,16,5.8,1
2017/1/31 2:00,5,15,5.2,16,5.5,16
2017/1/31 2:01,4.8,15,5,16,8.6,1
2017/1/31 2:02,5,15,5,15,8.9,1
2017/1/31 2:03,4.9,15,5,15,7.2,15
2017/1/31 2:04,4.9,15,4.9,15,7.8,16
2017/1/31 2:05,4.7,16,4.8,15,8.1,16
2017/1/31 2:06,4.5,16,4.7,15,8.6,16
2017/1/31 2:07,4.4,16,4.5,15,10,15
2017/1/31 2:08,4.4,16,4.6,15,7.7,15
2017/1/31 2:09,4.5,16,4.5,15,5.2,16
2017/1/31 2:10,4.8,16,4.8,15,10.2,16
2017/1/31 2:11,4.9,16,5,15,7,15
2017/1/31 2:12,4.7,16,4.9,15,6.3,16
2017/1/31 2:13,4.7,16,4.7,16,6.8,14
2017/1/31 2:14,4.4,16,4.6,16,4.2,15
2017/1/31 2:15,4.2,16,4.4,16,6,1
2017/1/31 2:16,4.1,16,4.3,16,6.7,16
2017/1/31 2:17,4.1,16,4.1,16,9.1,14
2017/1/31 2:18,4.2,16,4.2,16,9.1,15
2017/1/31 2:19,4.3,16,4.3,16,7.8,16
2017/1/31 2:20,3.9,16,4.2,16,4.1,16
2017/1/31 2:21,3.6,16,3.8,16,3.5,16
2017/1/31 2:22,3.4,16,3.6,16,2.6,16
2017/1/31 2:23,3.3,16,3.4,16,5.1,1
2017/1/31 2:24,3.4,16,3.4,16,4.5,1
2017/1/31 2:25,3.3,16,3.4,16,3.9,16
2017/1/31 2:26,3.4,16,3.4,16,6.3,16
2017/1/31 2:27,3.2,16,3.4,16,5.6,16
2017/1/31 2:28,2.8,16,3.2,16,2.7,1
2017/1/31 2:29,2.6,16,2.7,16,3.8,16
2017/1/31 2:30,2.6,16,2.6,16,3.7,16
2017/1/31 2:31,2.6,16,2.6,16,3,16
2017/1/31 2:32,2.8,16,2.8,16,7.4,1
2017/1/31 2:33,2.7,16,2.9,16,4.7,1
2017/1/31 2:34,2.6,16,2.7,16,4.8,16
2017/1/31 2:35,2.8,16,2.8,16,6.2,15
2017/1/31 2:36,2.5,16,2.8,16,4.7,15
2017/1/31 2:37,2.5,16,2.5,16,4.9,16
2017/1/31 2:38,2.9,16,2.9,16,7.6,1
2017/1/31 2:39,3.2,16,3.2,16,7,15
2017/1/31 2:40,3.3,16,3.3,16,6.2,16
2017/1/31 2:41,3.5,16,3.5,16,7.7,16
2017/1/31 2:42,3.7,16,3.7,16,9.9,15
2017/1/31 2:43,4,16,4,16,6.1,16
2017/1/31 2:44,4.1,16,4.1,16,6.2,15
2017/1/31 2:45,3.9,16,4,16,6.4,1
2017/1/31 2:46,4.1,16,4.1,16,6.9,15
2017/1/31 2:47,4.1,16,4.2,16,6.2,14
2017/1/31 2:48,4.1,16,4.2,16,8.4,16
2017/1/31 2:49,4,16,4.1,16,6.2,16
2017/1/31 2:50,4,16,4,16,6.5,16
2017/1/31 2:51,3.9,16,4,16,7.9,16
2017/1/31 2:52,3.7,16,3.9,16,8.1,16
2017/1/31 2:53,3.7,16,3.8,16,10.2,15
2017/1/31 2:54,3.8,16,3.8,16,9.5,1
2017/1/31 2:55,3.9,16,3.9,16,8.7,1
2017/1/31 2:56,4.2,16,4.2,16,9.8,16
2017/1/31 2:57,4.3,16,4.3,16,8.6,15
2017/1/31 2:58,4.1,16,4.3,16,6.8,16
2017/1/31 2:59,4.2,16,4.2,16,8.7,15
2017/1/31 3:00,4.1,16,4.2,16,5.4,15
2017/1/31 3:01,4.2,16,4.2,16,6.4,15
2017/1/31 3:02,4.3,16,4.3,16,8.9,1
2017/1/31 3:03,4.2,16,4.3,16,8.9,1
2017/1/31 3:04,4.2,16,4.2,16,7.2,16
2017/1/31 3:05,4.1,16,4.2,16,4.7,14
2017/1/31 3:06,3.7,16,4.1,16,6.1,15
2017/1/31 3:07,3.5,15,3.7,16,4.3,13
2017/1/31 3:08,3.3,16,3.5,16,3.3,1
2017/1/31 3:09,3,16,3.4,16,4.1,16
2017/1/31 3:10,2.9,16,3,16,1.8,1
2017/1/31 3:11,2.7,16,2.9,16,3.5,1
2017/1/31 3:12,2.6,16,2.7,16,7.4,1
2017/1/31 3:13,2.7,15,2.7,16,7.1,16
2017/1/31 3:14,2.5,15,2.7,16,5.5,16
2017/1/31 3:15,2.5,15,2.6,16,4.4,16
2017/1/31 3:16,2.6,16,2.6,16,6.8,15
2017/1/31 3:17,2.8,16,2.8,15,7.7,15
2017/1/31 3:18,3.2,16,3.2,16,9.5,16
2017/1/31 3:19,3.9,16,3.9,16,12.6,16
2017/1/31 3:20,4.6,16,4.6,16,12.5,16
2017/1/31 3:21,5,16,5,16,8.7,15
2017/1/31 3:22,5,16,5,16,8.4,15
2017/1/31 3:23,5,16,5.1,16,8.5,15
2017/1/31 3:24,5,16,5,16,3.9,1
2017/1/31 3:25,4.9,16,5,16,3.2,16
2017/1/31 3:26,4.6,16,4.9,16,2.2,10
2017/1/31 3:27,4.5,16,4.6,16,4.1,14
2017/1/31 3:28,4.2,16,4.5,16,5.5,15
2017/1/31 3:29,3.5,15,4.2,16,3.2,13
2017/1/31 3:30,2.8,16,3.5,16,1.6,2
2017/1/31 3:31,2.4,16,2.8,16,2.6,2
2017/1/31 3:32,2.2,16,2.4,16,3,1
2017/1/31 3:33,2,16,2.1,16,5.1,13
2017/1/31 3:34,1.9,16,2,16,5,13
2017/1/31 3:35,2.2,15,2.2,16,10.1,15
2017/1/31 3:36,2.8,15,2.8,16,9.8,1
2017/1/31 3:37,3.2,16,3.2,16,12.2,16
2017/1/31 3:38,3.4,16,3.4,16,8.1,16
2017/1/31 3:39,3.7,16,3.7,16,9.1,15
2017/1/31 3:40,3.9,16,3.9,16,6.5,15
2017/1/31 3:41,4.2,16,4.2,16,10.2,1
2017/1/31 3:42,4.4,16,4.4,16,8.6,2
2017/1/31 3:43,4.8,16,4.8,16,9.1,16
2017/1/31 3:44,5,16,5,16,7.8,16
2017/1/31 3:45,5,16,5.1,16,7.2,1
2017/1/31 3:46,5,16,5,16,10.6,14
2017/1/31 3:47,5,16,5,16,10.7,1
2017/1/31 3:48,4.9,16,5,16,7.6,1
2017/1/31 3:49,5.1,16,5.1,16,11.1,14
2017/1/31 3:50,5.5,16,5.5,16,11,16
2017/1/31 3:51,5.6,16,5.6,16,8.5,15
2017/1/31 3:52,5.5,16,5.6,16,7.2,1
2017/1/31 3:53,5.4,16,5.4,16,7.4,14
2017/1/31 3:54,5.5,16,5.5,16,8.4,15
2017/1/31 3:55,5.3,16,5.5,16,6.2,16
2017/1/31 3:56,5,15,5.3,16,7.1,15
2017/1/31 3:57,4.7,15,5,16,5.5,14
2017/1/31 3:58,4.7,15,4.7,16,9.9,15
2017/1/31 3:59,4.6,15,4.8,16,8.5,15
2017/1/31 4:00,4.3,15,4.6,16,7.6,15
2017/1/31 4:01,4.3,15,4.3,16,7.7,15
2017/1/31 4:02,4.4,15,4.4,16,6.9,15
2017/1/31 4:03,4.4,15,4.4,16,7.9,14
2017/1/31 4:04,4.2,15,4.4,16,8.1,16
2017/1/31 4:05,4.5,15,4.5,16,10.3,16
2017/1/31 4:06,4.3,15,4.5,15,4.4,16
2017/1/31 4:07,4.4,15,4.4,15,6.4,16
2017/1/31 4:08,4.4,15,4.5,15,6.9,14
2017/1/31 4:09,4.2,15,4.4,15,5.5,14
2017/1/31 4:10,4.2,15,4.2,15,7.1,15
2017/1/31 4:11,4.2,15,4.3,15,7,16
2017/1/31 4:12,4.2,15,4.2,15,8.2,16
2017/1/31 4:13,4.1,15,4.2,15,6.1,15
2017/1/31 4:14,4,15,4.1,15,6.7,16
2017/1/31 4:15,3.6,15,4,15,2.6,1
2017/1/31 4:16,3.6,15,3.6,15,5.5,15
2017/1/31 4:17,3.7,15,3.7,15,8.2,15
2017/1/31 4:18,3.7,15,3.7,15,7.8,2
2017/1/31 4:19,3.9,15,3.9,15,8.4,15
2017/1/31 4:20,4,15,4,15,6.5,16
2017/1/31 4:21,3.9,15,4,15,6.4,16
2017/1/31 4:22,3.9,15,3.9,15,7.4,16
2017/1/31 4:23,3.8,15,3.9,15,5.5,16
2017/1/31 4:24,3.7,15,3.8,15,4.5,8
2017/1/31 4:25,3.6,16,3.7,15,3.1,1
2017/1/31 4:26,3.5,16,3.6,15,2.6,2
2017/1/31 4:27,3.5,16,3.5,15,7.4,15
2017/1/31 4:28,3.2,16,3.5,15,3.6,1
2017/1/31 4:29,2.9,16,3.2,15,4.4,16
2017/1/31 4:30,2.7,16,2.9,15,4.2,16
2017/1/31 4:31,2.7,1,2.7,15,6,1
2017/1/31 4:32,2.6,1,2.7,15,6.7,14
2017/1/31 4:33,2.8,16,2.8,15,6.7,15
2017/1/31 4:34,2.9,16,2.9,15,5.6,16
2017/1/31 4:35,3,16,3,16,4.1,15
2017/1/31 4:36,3.3,16,3.3,16,7.2,16
2017/1/31 4:37,3,16,3.3,16,4.9,16
2017/1/31 4:38,3.1,16,3.1,16,5.7,15
2017/1/31 4:39,3.1,16,3.2,16,3.9,14
2017/1/31 4:40,3,15,3.1,16,4.1,15
2017/1/31 4:41,3,15,3,16,6.4,14
2017/1/31 4:42,3.2,15,3.2,16,13.8,15
2017/1/31 4:43,3.4,15,3.4,15,10.6,16
2017/1/31 4:44,3.6,15,3.6,15,7.1,1
2017/1/31 4:45,3.9,15,3.9,15,8.2,15
2017/1/31 4:46,3.8,15,3.9,15,4.5,14
2017/1/31 4:47,3.9,15,3.9,15,5.6,14
2017/1/31 4:48,3.8,15,4,15,3.7,14
2017/1/31 4:49,3.7,15,3.8,15,2.2,14
2017/1/31 4:50,3.7,15,3.7,15,5,16
2017/1/31 4:51,4,15,4,15,8.5,15
2017/1/31 4:52,3.7,15,4,15,6.4,1
2017/1/31 4:53,3.6,15,3.7,15,6.4,16
2017/1/31 4:54,3.6,15,3.6,15,11.1,16
2017/1/31 4:55,3.4,15,3.6,15,7,16
2017/1/31 4:56,3.5,15,3.5,15,4.3,16
2017/1/31 4:57,3.5,15,3.5,15,5.6,16
2017/1/31 4:58,3.6,16,3.6,15,4.5,16
2017/1/31 4:59,3.6,16,3.7,15,2.1,14
2017/1/31 5:00,3.6,16,3.6,15,4.2,16
2017/1/31 5:01,3.3,16,3.6,15,7,15
2017/1/31 5:02,3.1,16,3.3,15,4.8,12
2017/1/31 5:03,3.1,16,3.1,16,5.4,16
2017/1/31 5:04,2.8,15,3,16,5.4,15
2017/1/31 5:05,2.9,15,2.9,16,7.7,16
2017/1/31 5:06,2.8,15,2.9,16,5.5,16
2017/1/31 5:07,2.8,14,2.8,16,4.1,11
2017/1/31 5:08,3,14,3,16,7.7,10
2017/1/31 5:09,3,14,3,16,3.5,16
2017/1/31 5:10,3.1,13,3.1,16,4.1,11
2017/1/31 5:11,3,13,3.1,16,3.9,10
2017/1/31 5:12,3,13,3,16,4.1,12
2017/1/31 5:13,3,13,3,14,4.8,13
2017/1/31 5:14,2.8,12,2.9,14,4.4,12
2017/1/31 5:15,2.6,12,2.8,14,5.6,12
2017/1/31 5:16,2.5,12,2.6,14,5.1,16
2017/1/31 5:17,2.5,12,2.6,14,5.6,15
2017/1/31 5:18,2.3,13,2.5,14,3.8,16
2017/1/31 5:19,2.2,13,2.3,14,2.5,2
2017/1/31 5:20,2.2,13,2.2,13,5.8,15
2017/1/31 5:21,2.4,14,2.4,13,5.1,16
2017/1/31 5:22,2.5,14,2.5,13,5.8,15
2017/1/31 5:23,2.4,15,2.4,12,4.5,15
2017/1/31 5:24,2.5,15,2.5,12,5,16
2017/1/31 5:25,2.6,16,2.6,12,6.4,16
2017/1/31 5:26,2.7,16,2.8,16,7.5,16
2017/1/31 5:27,2.8,15,2.8,16,5.6,12
2017/1/31 5:28,2.9,15,2.9,15,5,13
2017/1/31 5:29,3.1,15,3.1,15,4.2,14
2017/1/31 5:30,3.1,15,3.1,15,6,16
2017/1/31 5:31,3.1,15,3.1,15,6.7,15
2017/1/31 5:32,3.1,15,3.1,15,5.2,16
2017/1/31 5:33,3.1,15,3.1,15,4.8,14
2017/1/31 5:34,3,14,3.1,15,2.9,14
2017/1/31 5:35,2.7,14,2.9,15,3.8,12
2017/1/31 5:36,2.6,14,2.7,15,2.2,12
2017/1/31 5:37,2.7,14,2.7,15,6.5,16
2017/1/31 5:38,2.7,15,2.7,15,6,15
2017/1/31 5:39,2.7,14,2.8,15,4.5,16
2017/1/31 5:40,2.6,14,2.8,15,3.6,13
2017/1/31 5:41,2.7,14,2.7,15,4.5,13
2017/1/31 5:42,2.6,14,2.6,15,5,14
2017/1/31 5:43,2.7,14,2.7,15,6.7,16
2017/1/31 5:44,3,14,3,14,7.6,16
2017/1/31 5:45,2.9,14,3,14,4.7,14
2017/1/31 5:46,3.1,14,3.1,14,4.1,15
2017/1/31 5:47,2.9,14,3,14,5.6,15
2017/1/31 5:48,2.8,14,2.9,14,5.6,16
2017/1/31 5:49,2.8,14,2.9,14,4.9,14
2017/1/31 5:50,2.7,14,2.8,14,3.1,12
2017/1/31 5:51,2.6,15,2.7,14,3.3,15
2017/1/31 5:52,2.5,15,2.6,14,2.7,15
2017/1/31 5:53,2.3,15,2.5,14,1.9,13
2017/1/31 5:54,2,15,2.2,14,2.5,16
2017/1/31 5:55,1.9,15,2,14,2.9,13
2017/1/31 5:56,1.9,14,1.9,14,3.7,12
2017/1/31 5:57,1.9,14,2,14,5.5,12
2017/1/31 5:58,2.1,14,2.1,14,7.5,15
2017/1/31 5:59,2.3,14,2.3,14,9.5,15
2017/1/31 6:00,2.6,15,2.6,14,7.5,16
2017/1/31 6:01,2.6,14,2.6,15,4.5,12
2017/1/31 6:02,2.7,14,2.7,14,3.2,12
2017/1/31 6:03,2.8,14,2.8,14,2.4,11
2017/1/31 6:04,2.8,14,2.8,14,2.4,15
2017/1/31 6:05,2.8,14,2.8,14,4.9,15
2017/1/31 6:06,2.8,14,2.9,14,5.5,15
2017/1/31 6:07,2.8,14,2.8,14,4.1,14
2017/1/31 6:08,2.6,14,2.8,14,3.7,15
2017/1/31 6:09,2.3,14,2.6,14,2.1,15
2017/1/31 6:10,2,14,2.3,14,2,13
2017/1/31 6:11,1.9,14,2,14,3,15
2017/1/31 6:12,1.8,14,1.9,14,2.4,12
2017/1/31 6:13,1.7,14,1.8,14,1.5,12
2017/1/31 6:14,1.7,15,1.7,14,3.6,15
2017/1/31 6:15,1.8,15,1.8,14,4.2,15
2017/1/31 6:16,1.8,15,1.8,14,4.9,15
2017/1/31 6:17,1.7,15,1.9,14,3.8,15
2017/1/31 6:18,1.6,15,1.7,14,2.9,15
2017/1/31 6:19,1.7,15,1.7,14,3.6,14
2017/1/31 6:20,1.7,15,1.7,14,3.3,15
2017/1/31 6:21,1.8,15,1.8,14,4.3,16
2017/1/31 6:22,1.9,15,1.9,15,2.7,16
2017/1/31 6:23,1.9,15,1.9,15,3.1,16
2017/1/31 6:24,2,15,2,15,2.4,15
2017/1/31 6:25,1.9,15,2,15,4.4,15
2017/1/31 6:26,1.9,15,1.9,15,7,1
2017/1/31 6:27,2,15,2,15,6.4,16
2017/1/31 6:28,2.3,15,2.3,15,6.9,15
2017/1/31 6:29,2.4,15,2.5,15,5.8,15
2017/1/31 6:30,2.5,16,2.5,15,4.3,16
2017/1/31 6:31,2.5,16,2.5,15,5.5,15
2017/1/31 6:32,2.5,16,2.5,15,3.3,14
2017/1/31 6:33,2.5,15,2.5,15,2.7,15
2017/1/31 6:34,2.6,16,2.6,15,3.2,16
2017/1/31 6:35,2.5,16,2.6,15,3,16
2017/1/31 6:36,2.3,16,2.5,15,2.2,16
2017/1/31 6:37,2.2,16,2.3,15,2,15
2017/1/31 6:38,2.1,16,2.2,15,6.8,14
2017/1/31 6:39,2.1,16,2.1,15,5.8,15
2017/1/31 6:40,2.1,15,2.2,15,3.5,15
2017/1/31 6:41,1.9,15,2.1,15,2.4,10
2017/1/31 6:42,1.9,15,1.9,15,4.2,13
2017/1/31 6:43,2.1,14,2.1,15,5.8,12
2017/1/31 6:44,2.2,14,2.2,16,7.6,14
2017/1/31 6:45,2.4,14,2.4,16,6.5,15
2017/1/31 6:46,2.7,14,2.7,14,7.1,15
2017/1/31 6:47,2.9,14,2.9,14,4.3,15
2017/1/31 6:48,2.7,14,2.9,14,4.2,16
2017/1/31 6:49,2.7,14,2.7,14,4.4,15
2017/1/31 6:50,2.7,14,2.7,14,2.2,16
2017/1/31 6:51,2.9,15,2.9,14,4.5,16
2017/1/31 6:52,2.7,15,2.8,14,1.9,13
2017/1/31 6:53,2.5,15,2.7,14,1.9,13
2017/1/31 6:54,2.3,15,2.5,14,2.5,16
2017/1/31 6:55,2,15,2.2,14,2.4,1
2017/1/31 6:56,1.8,15,2,14,4.1,15
2017/1/31 6:57,1.7,15,1.8,14,3.1,15
2017/1/31 6:58,1.8,15,1.8,15,5.8,16
2017/1/31 6:59,1.9,14,1.9,15,7.2,12
2017/1/31 7:00,2,14,2,15,6.1,12
2017/1/31 7:01,2,14,2,15,4.1,15
2017/1/31 7:02,2.2,14,2.2,15,5.2,12
2017/1/31 7:03,2.3,14,2.3,15,2.5,12
2017/1/31 7:04,2.4,14,2.4,14,3.7,12
2017/1/31 7:05,2.5,13,2.5,14,4.1,14
2017/1/31 7:06,2.3,13,2.5,14,1.9,13
2017/1/31 7:07,2.3,14,2.3,14,3.6,1
2017/1/31 7:08,2.3,14,2.3,14,4.2,15
2017/1/31 7:09,2.1,14,2.3,14,3.1,15
2017/1/31 7:10,2,14,2.1,14,2.5,16
2017/1/31 7:11,1.9,14,2,14,2.1,15
2017/1/31 7:12,1.8,14,1.9,14,3,14
2017/1/31 7:13,1.8,15,1.8,14,3.5,15
2017/1/31 7:14,1.8,15,1.8,14,3.3,15
2017/1/31 7:15,1.7,15,1.8,13,2.9,14
2017/1/31 7:16,1.8,15,1.8,13,3.3,15
2017/1/31 7:17,1.8,15,1.8,14,2.1,15
2017/1/31 7:18,1.7,14,1.8,14,2.7,15
2017/1/31 7:19,1.6,14,1.7,14,1.9,15
2017/1/31 7:20,1.6,14,1.6,14,2.4,14
2017/1/31 7:21,1.6,14,1.6,14,2.7,15
2017/1/31 7:22,1.6,14,1.6,14,2.5,2
2017/1/31 7:23,1.5,15,1.6,15,2,1
2017/1/31 7:24,1.4,15,1.5,15,1.1,16
2017/1/31 7:25,1.4,15,1.4,15,3.2,13
2017/1/31 7:26,1.4,15,1.4,15,3.8,1
2017/1/31 7:27,1.4,15,1.4,15,3.6,14
2017/1/31 7:28,1.6,15,1.6,14,5.8,16
2017/1/31 7:29,1.9,15,1.9,15,8.5,15
2017/1/31 7:30,2.2,15,2.2,15,9.3,15
2017/1/31 7:31,2.4,15,2.4,15,4.9,14
2017/1/31 7:32,2.6,15,2.6,15,7.5,15
2017/1/31 7:33,2.9,15,2.9,15,6.8,14
2017/1/31 7:34,3,15,3,15,4.8,16
2017/1/31 7:35,3.4,15,3.4,15,7.5,15
2017/1/31 7:36,3.6,15,3.6,15,7,15
2017/1/31 7:37,3.8,15,3.8,15,5.8,15
2017/1/31 7:38,3.7,15,3.8,15,4.4,16
2017/1/31 7:39,3.4,15,3.7,15,3.1,10
2017/1/31 7:40,3,15,3.3,15,2.4,16
2017/1/31 7:41,2.8,14,3,15,2.2,16
2017/1/31 7:42,2.5,14,2.8,15,1.9,12
2017/1/31 7:43,2.2,14,2.5,15,2.1,13
2017/1/31 7:44,2.2,13,2.3,15,3.2,12
2017/1/31 7:45,1.9,13,2.2,15,4.1,1
2017/1/31 7:46,1.7,13,1.9,15,3.5,15
2017/1/31 7:47,1.7,13,1.7,15,5,16
2017/1/31 7:48,1.8,13,1.8,15,6.1,1
2017/1/31 7:49,1.8,13,1.8,15,3.7,14
2017/1/31 7:50,2,14,2,15,4.3,16
2017/1/31 7:51,2,14,2,14,2.2,16
2017/1/31 7:52,2,14,2,14,1.6,12
2017/1/31 7:53,2,14,2,14,2,13
2017/1/31 7:54,1.9,14,2,13,2.9,13
2017/1/31 7:55,1.9,14,2,13,3.5,9
2017/1/31 7:56,1.9,13,1.9,13,2.5,10
2017/1/31 7:57,1.7,13,1.9,13,2.6,10
2017/1/31 7:58,1.5,12,1.7,13,3.5,9
2017/1/31 7:59,1.4,12,1.5,13,3.9,9
2017/1/31 8:00,1.2,11,1.4,14,1.5,1
2017/1/31 8:01,1.2,11,1.2,14,2.2,3
2017/1/31 8:02,1.2,10,1.3,14,1.8,9
2017/1/31 8:03,1.1,10,1.2,14,2.7,10
2017/1/31 8:04,1.2,9,1.2,14,3,9
2017/1/31 8:05,1.2,9,1.3,14,4.1,9
2017/1/31 8:06,1.3,9,1.3,13,3.7,9
2017/1/31 8:07,1.4,10,1.4,13,3.9,9
2017/1/31 8:08,1.4,10,1.4,12,3.7,9
2017/1/31 8:09,1.5,10,1.5,10,3.2,9
2017/1/31 8:10,1.6,9,1.6,9,4.2,11
2017/1/31 8:11,1.7,9,1.7,9,4.5,9
2017/1/31 8:12,1.9,9,1.9,9,3.5,9
2017/1/31 8:13,2,9,2.1,9,3,9
2017/1/31 8:14,2.1,9,2.1,9,3.9,9
2017/1/31 8:15,2.1,9,2.1,9,3.1,9
2017/1/31 8:16,2,9,2.1,9,2,9
2017/1/31 8:17,2,9,2.1,9,4.1,9
2017/1/31 8:18,2.1,9,2.1,9,4.4,9
2017/1/31 8:19,2.1,9,2.2,9,4.7,9
2017/1/31 8:20,2.2,9,2.2,9,4.4,9
2017/1/31 8:21,2.3,9,2.3,9,4.5,9
2017/1/31 8:22,2.2,9,2.3,9,4.2,10
2017/1/31 8:23,2.2,9,2.2,9,4.2,9
2017/1/31 8:24,2.3,9,2.3,9,4.7,10
2017/1/31 8:25,2.3,9,2.3,9,3.8,10
2017/1/31 8:26,2.4,9,2.4,9,3.1,11
2017/1/31 8:27,2.2,10,2.4,9,3.2,11
2017/1/31 8:28,2.1,10,2.2,9,2.7,9
2017/1/31 8:29,2.1,10,2.1,9,3.5,11
2017/1/31 8:30,2,10,2.1,9,2.5,8
2017/1/31 8:31,1.8,10,2,9,1.9,9
2017/1/31 8:32,1.8,10,1.8,9,3.5,7
2017/1/31 8:33,1.8,10,1.8,9,2.6,9
2017/1/31 8:34,1.5,10,1.8,9,2.2,8
2017/1/31 8:35,1.5,10,1.5,9,1.9,10
2017/1/31 8:36,1.4,9,1.5,9,2.1,7
2017/1/31 8:37,1.4,9,1.4,10,2.7,6
2017/1/31 8:38,1.5,8,1.5,10,3,6
2017/1/31 8:39,1.4,8,1.5,10,2.4,5
2017/1/31 8:40,1.4,7,1.4,10,2.7,5
2017/1/31 8:41,1.5,7,1.5,10,3,6
2017/1/31 8:42,1.6,7,1.6,10,3.8,6
2017/1/31 8:43,1.7,7,1.7,10,4.8,8
2017/1/31 8:44,1.9,7,1.9,7,4.4,9
2017/1/31 8:45,1.9,7,1.9,7,2.5,8
2017/1/31 8:46,2.1,7,2.1,7,5,8
2017/1/31 8:47,2.2,7,2.2,7,4.8,8
2017/1/31 8:48,2.3,7,2.3,7,6,8
2017/1/31 8:49,2.7,7,2.7,7,6.4,8
2017/1/31 8:50,2.9,8,2.9,8,6.3,9
2017/1/31 8:51,3.2,8,3.2,8,7.9,9
2017/1/31 8:52,3.2,8,3.2,8,5.2,9
2017/1/31 8:53,3.1,8,3.2,8,3.2,8
2017/1/31 8:54,3.1,8,3.2,8,3.6,10
2017/1/31 8:55,3.1,9,3.1,8,2,11
2017/1/31 8:56,2.8,9,3,8,1.8,11
2017/1/31 8:57,2.6,9,2.8,8,1.3,10
2017/1/31 8:58,2.3,9,2.6,8,0.9,11
2017/1/31 8:59,1.8,10,2.2,8,0.8,16
2017/1/31 9:00,1.5,10,1.8,8,0.5,3
2017/1/31 9:01,1,10,1.5,8,0.8,4
2017/1/31 9:02,0.7,9,1,8,0.3,7
2017/1/31 9:03,0.6,8,0.7,8,1.3,7
2017/1/31 9:04,0.4,8,0.6,8,1.3,8
2017/1/31 9:05,0.4,7,0.4,9,1.6,9
2017/1/31 9:06,0.3,9,0.4,9,0.4,14
2017/1/31 9:07,0.3,8,0.3,9,0.3,9
2017/1/31 9:08,0.3,9,0.3,9,0.5,10
2017/1/31 9:09,0.3,9,0.3,10,1.3,8
2017/1/31 9:10,0.4,9,0.4,10,0.9,10
2017/1/31 9:11,0.4,9,0.4,9,0.8,10
2017/1/31 9:12,0.4,10,0.4,9,0.9,7
2017/1/31 9:13,0.4,10,0.5,8,1.4,8
2017/1/31 9:14,0.5,10,0.5,10,2,10
2017/1/31 9:15,0.5,10,0.5,10,1.5,8
2017/1/31 9:16,0.7,10,0.7,10,3.1,9
2017/1/31 9:17,0.8,9,0.8,9,3.5,10
2017/1/31 9:18,0.9,9,0.9,9,3.5,9
2017/1/31 9:19,1.1,9,1.1,9,5.2,9
2017/1/31 9:20,1.3,9,1.3,9,4.3,9
2017/1/31 9:21,1.5,9,1.5,9,4.1,9
2017/1/31 9:22,1.6,10,1.6,10,3,10
2017/1/31 9:23,1.7,10,1.7,10,2.7,12
2017/1/31 9:24,1.8,10,1.8,10,4.2,9
2017/1/31 9:25,2,10,2,10,3.7,9
2017/1/31 9:26,1.9,10,2,10,2.1,10
2017/1/31 9:27,2,10,2,10,3.6,9
2017/1/31 9:28,1.9,10,2,10,3.5,9
2017/1/31 9:29,1.9,10,1.9,10,3.6,9
2017/1/31 9:30,1.8,10,1.9,10,4.9,9
2017/1/31 9:31,1.7,10,1.8,10,4.8,8
2017/1/31 9:32,1.7,10,1.7,10,3.9,9
2017/1/31 9:33,1.6,10,1.7,10,2.1,8
2017/1/31 9:34,1.6,10,1.7,10,2.7,10
2017/1/31 9:35,1.5,10,1.6,10,2.7,9
2017/1/31 9:36,1.5,10,1.5,10,2.1,9
2017/1/31 9:37,1.5,9,1.5,10,3.7,10
2017/1/31 9:38,1.6,9,1.6,10,3.2,9
2017/1/31 9:39,1.6,9,1.7,10,2.5,10
2017/1/31 9:40,1.5,9,1.6,10,2.6,9
2017/1/31 9:41,1.5,9,1.5,10,2.4,8
2017/1/31 9:42,1.4,9,1.5,10,1.5,9
2017/1/31 9:43,1.5,9,1.5,10,3.8,9
2017/1/31 9:44,1.5,9,1.5,9,2.7,9
2017/1/31 9:45,1.5,9,1.5,9,2.2,10
2017/1/31 9:46,1.5,9,1.5,9,2.1,8
2017/1/31 9:47,1.4,9,1.5,9,2.2,8
2017/1/31 9:48,1.3,9,1.4,9,2.7,9
2017/1/31 9:49,1.3,9,1.3,10,3.8,9
2017/1/31 9:50,1.4,9,1.4,9,3.1,9
2017/1/31 9:51,1.4,9,1.5,9,3.1,9
2017/1/31 9:52,1.5,9,1.5,9,2.2,9
2017/1/31 9:53,1.4,9,1.5,9,2.1,9
2017/1/31 9:54,1.4,9,1.4,9,2.7,9
2017/1/31 9:55,1.4,9,1.4,9,2.9,8
2017/1/31 9:56,1.6,9,1.6,9,4.2,9
2017/1/31 9:57,1.7,9,1.7,9,4.4,9
2017/1/31 9:58,1.9,9,1.9,9,5.2,9
2017/1/31 9:59,1.9,9,1.9,9,4.5,8
2017/1/31 10:00,2,9,2,9,5.2,9
2017/1/31 10:01,2.1,9,2.1,9,4.2,9
2017/1/31 10:02,2.2,9,2.2,9,4.1,9
2017/1/31 10:03,2.3,9,2.3,9,3.3,10
2017/1/31 10:04,2.4,9,2.4,9,4.2,9
2017/1/31 10:05,2.6,9,2.6,9,4.4,9
2017/1/31 10:06,2.6,9,2.6,9,4.5,9
2017/1/31 10:07,2.4,9,2.5,9,3.7,9
2017/1/31 10:08,2.4,9,2.4,9,4.4,9
2017/1/31 10:09,2.3,9,2.4,9,3.5,8
2017/1/31 10:10,2.1,9,2.3,9,3.6,8
2017/1/31 10:11,2,9,2.1,9,3.1,8
2017/1/31 10:12,2,9,2,9,3.3,9
2017/1/31 10:13,2.1,9,2.1,9,4.9,9
2017/1/31 10:14,1.9,9,2.1,9,2.2,7
2017/1/31 10:15,1.8,9,1.9,9,3,7
2017/1/31 10:16,1.6,9,1.8,9,1.5,9
2017/1/31 10:17,1.6,9,1.6,9,1.8,9
2017/1/31 10:18,1.6,9,1.7,9,3.3,9
2017/1/31 10:19,1.7,9,1.7,9,3.1,8
2017/1/31 10:20,1.7,8,1.7,9,2.4,8
2017/1/31 10:21,1.7,8,1.7,9,2.2,8
2017/1/31 10:22,1.6,8,1.7,9,1.4,8
2017/1/31 10:23,1.3,8,1.5,9,0.9,8
2017/1/31 10:24,1.4,8,1.4,9,3.2,8
2017/1/31 10:25,1.3,8,1.3,9,2.7,8
2017/1/31 10:26,1.5,8,1.5,9,3.1,8
2017/1/31 10:27,1.6,8,1.6,9,4.2,9
2017/1/31 10:28,1.5,8,1.6,9,3.2,9
2017/1/31 10:29,1.4,9,1.5,9,3.2,9
2017/1/31 10:30,1.3,9,1.4,8,2.2,9
2017/1/31 10:31,1.4,9,1.4,8,3.1,10
2017/1/31 10:32,1.5,9,1.5,8,3.9,8
2017/1/31 10:33,1.7,9,1.7,9,4.8,9
2017/1/31 10:34,1.6,10,1.7,9,3.3,10
2017/1/31 10:35,1.6,10,1.6,9,2.4,10
2017/1/31 10:36,1.5,10,1.6,9,3.2,10
2017/1/31 10:37,1.4,10,1.5,9,3.5,10
2017/1/31 10:38,1.4,10,1.4,9,3,9
2017/1/31 10:39,1.4,10,1.4,9,3,9
2017/1/31 10:40,1.5,10,1.5,9,3.8,9
2017/1/31 10:41,1.5,10,1.5,9,4.2,9
2017/1/31 10:42,1.5,10,1.5,9,3.9,9
2017/1/31 10:43,1.5,10,1.5,9,3.5,9
2017/1/31 10:44,1.5,10,1.5,10,2.2,10
2017/1/31 10:45,1.5,9,1.5,10,3.1,9
2017/1/31 10:46,1.4,9,1.5,10,1.1,11
2017/1/31 10:47,1.3,9,1.4,10,2,10
2017/1/31 10:48,1.2,9,1.3,10,0.9,6
2017/1/31 10:49,1.1,10,1.2,10,0.9,13
2017/1/31 10:50,1.1,10,1.1,10,2.4,11
2017/1/31 10:51,1,10,1.1,10,1.9,11
2017/1/31 10:52,0.9,10,1,10,1.9,11
2017/1/31 10:53,0.8,11,0.9,10,0.6,13
2017/1/31 10:54,0.8,10,0.8,10,2.1,5
2017/1/31 10:55,0.8,10,0.8,9,1.9,7
2017/1/31 10:56,0.9,10,0.9,9,1.8,16
2017/1/31 10:57,0.9,11,0.9,9,1.3,14
2017/1/31 10:58,0.9,11,0.9,9,1.3,2
2017/1/31 10:59,0.9,12,0.9,10,2.4,2
2017/1/31 11:00,0.8,14,0.9,10,1.4,16
2017/1/31 11:01,0.7,16,0.8,10,1.6,1
2017/1/31 11:02,0.6,2,0.7,11,0.4,16
2017/1/31 11:03,0.7,2,0.7,10,0.6,4